Location: The Stocker AstroScience Center
(25.7579°N, 80.3725°W)
Time: 04:38:57

ISS - Pass Details

Date: 28 February 2018
Orbit: 403 x 406 km, 51.6° (Epoch: 21 March)

Event Time Altitude Azimuth Distance (km) Brightness Sun altitude
Rises 12:50:39 0° 331° (NNW) 2,314 -0.3 56.2°
Reaches altitude 10° 12:52:56 10° 344° (NNW) 1,453 -1.2 56.1°
Maximum altitude 12:55:45 26° 44° (NE) 824 -2.3 56.0°
Drops below altitude 10° 12:58:33 10° 104° (ESE) 1,448 -0.9 55.9°
Sets 13:00:49 0° 117° (ESE) 2,304 0.1 55.8°
